[[{"header":{"parameterUnit":"m.s-1","parameterCategory":1,"la1":30.2991,"la2":30.254,"lo1":-89.0895,"lo2":-89.0444,"dy":0.0017,"dx":0.0017,"nx":28,"ny":28,"refTime":"2025-09-01T21:00:00:Z","depth":0,"parameterNumber":2,"parameterNumberName":"U-component_of_WINDS"},"data":[0,0,0,0,0,0,0,0,0,0,0,0,0,0,0,0,0,0,0,0,0,0,0,0,0,0,0,0,0,0,0,0,0,0,0,0,0,0,0,0,0,0,0,0,0,0,0,0,0,0,0,0,0,0,0,0,0,0,-6.1491,-6.1491,0,-6.1488,-6.1487,-6.1487,-6.1325,-6.1321,-6.1316,-6.1312,-6.1311,-6.1315,-6.1318,0,0,0,0,0,0,0,0,0,0,0,0,0,-6.1359,-6.1362,-6.1491,-6.1491,-6.149,-6.1488,-6.1487,-6.1487,-6.1326,-6.132,-6.1315,-6.131,-6.131,-6.1314,-6.1319,0,0,0,0,0,0,0,0,0,0,0,0,0,-6.1392,-6.1363,-6.1491,-6.1409,-6.1402,-6.1488,-6.1487,-6.1487,-6.1327,-6.132,-6.1314,-6.1308,-6.1308,-6.1314,-6.1319,-6.1483,0,0,-6.1337,-6.134,0,0,0,0,0,0,0,0,-6.1391,-6.1397,-6.1421,-6.1415,-6.1407,-6.14,-6.144,-6.1486,-6.1328,-6.1355,-6.1312,-6.1305,-6.1346,-6.1348,-6.1361,-6.1483,-6.1483,-6.1338,-6.1341,-6.1344,-6.1346,0,0,0,0,0,0,0,-6.1388,-6.1396,-6.1489,-6.1422,-6.1413,-6.1374,-6.1372,-6.1448,-6.1386,-6.1353,-6.1341,-6.1343,-6.1341,-6.1356,-6.136,-6.1483,-6.1338,-6.1343,-6.1347,-6.1349,-6.174,-6.1747,0,0,0,0,0,0,-6.1397,-6.1396,-6.1489,-6.1489,-6.1383,-6.1382,-6.1379,-6.1409,-6.1385,-6.1375,-6.1348,-6.1335,-6.1349,-6.1354,-6.136,-6.155,-6.1344,-6.1349,-6.1353,-6.1733,-6.1742,-6.1749,0,0,0,0,0,0,-6.1395,-6.1407,-6.1489,-6.1439,-6.1447,-6.1391,-6.1425,-6.1412,-6.1427,-6.1381,-6.137,-6.1375,-6.1345,-6.1351,-6.1454,-6.1548,-6.1352,-6.1357,-6.1725,-6.1736,-6.1745,-6.1932,0,0,0,0,0,0,-6.1392,-6.1407,-6.1468,-6.1442,-6.145,-6.1583,-6.1431,-6.1417,-6.1438,-6.1421,-6.1404,-6.1395,-6.134,-6.1446,-6.146,-6.1552,-6.1362,-6.1716,-6.173,-6.1742,-6.1918,-6.1948,-6.1974,0,0,0,0,0,-6.1388,-6.152,-6.1472,-6.1484,-6.1525,-6.1589,-6.1594,-6.1527,-6.1446,-6.1507,-6.1478,-6.1396,-6.1536,-6.1458,-6.1472,-6.1568,-6.171,-6.1726,-6.1741,-6.1905,-6.1942,-6.1973,0,0,0,0,0,0,-6.1558,-6.1515,-6.1461,-6.1589,-6.1594,-6.1561,-6.1636,-6.1568,-6.1597,-6.158,-6.1497,-6.1494,-6.161,-6.1599,-6.1513,-6.1726,-6.1608,-6.1628,-6.1728,-6.1763,-6.1791,-6.1791,-6.1367,0,0,0,0,0,-6.1611,-6.1666,-6.1626,-6.1743,-6.1748,-6.1693,-6.1718,-6.1667,-6.1669,-6.167,-6.1648,-6.1654,-6.1699,-6.1731,-6.177,-6.1916,-6.191,-6.1989,-6.2017,-6.204,-6.2058,-6.2136,-6.2171,-6.18,-6.18,-6.1799,0,0,-6.172,-6.1703,-6.1743,-6.1777,-6.1775,-6.1835,-6.1695,-6.1764,-6.1808,-6.168,-6.1776,-6.1761,-6.1762,-6.1888,-6.1942,-6.1882,-6.2159,-6.206,-6.2079,-6.2083,-6.2155,-6.2191,-6.2222,-6.181,-6.1808,-6.1807,0,0,-6.1949,-6.1942,-6.2039,-6.2041,-6.2039,-6.2002,-6.2026,-6.2004,-6.1989,-6.2084,-6.199,-6.2042,-6.2121,-6.2126,-6.2139,-6.2375,-6.2301,-6.239,-6.2537,-6.2614,-6.2643,-6.2669,-6.2753,-6.2785,-6.2408,-6.2408,-6.2409,0,-6.2084,-6.217,-6.2098,-6.2174,-6.2192,-6.208,-6.2179,-6.2184,-6.2196,-6.2212,-6.2145,-6.2244,-6.2237,-6.2363,-6.242,-6.2435,-6.246,-6.2391,-6.2645,-6.267,-6.2692,-6.2772,-6.2804,-6.2419,-6.2418,-6.2417,-6.2416,0,-6.2338,-6.2399,-6.2478,-6.2493,-6.2521,-6.2608,-6.255,-6.2587,-6.2534,-6.2505,-6.2604,-6.2592,-6.2627,-6.2654,-6.2603,-6.2774,-6.2737,-6.2659,-6.2539,-6.274,-6.2813,-6.2843,-6.2435,-6.2431,-6.2428,-6.2425,0,0,-6.2671,-6.2647,-6.2677,-6.2684,-6.2676,-6.2723,-6.2806,-6.2841,-6.2875,-6.2888,-6.2956,-6.3028,-6.2956,-6.2972,-6.2921,-6.2989,-6.3178,-6.2902,-6.2901,-6.2954,-6.3367,-6.3425,-6.3462,-6.3129,-6.3135,-6.3139,-6.3367,0,-6.2893,-6.3033,-6.2972,-6.3118,-6.3175,-6.3072,-6.3144,-6.3149,-6.3124,-6.317,-6.3142,-6.3195,-6.3096,-6.3105,-6.3168,-6.3142,-6.3259,-6.3124,-6.3193,-6.3196,-6.3195,-6.35,-6.3561,-6.3776,-6.3395,-6.34,-6.3403,0,-6.3169,-6.3195,-6.3348,-6.3332,-6.3353,-6.342,-6.3448,-6.3493,-6.3497,-6.3474,-6.3493,-6.3428,-6.351,-6.3393,-6.3505,-6.3415,-6.344,-6.3432,-6.3439,-6.3442,-6.3311,-6.3511,-6.3843,-6.3876,-6.3448,-6.3444,-6.3441,0,-6.3398,-6.3471,-6.3572,-6.358,-6.3564,-6.3614,-6.361,-6.3607,-6.3633,-6.3658,-6.3674,-6.371,-6.3729,-6.3758,-6.3705,-6.3624,-6.3826,-6.3704,-6.3811,-6.3812,-6.3856,-6.3854,-6.4197,-6.3874,-6.3874,-6.3873,-6.3872,0,-6.3652,-6.3749,-6.3674,-6.3736,-6.3843,-6.3774,-6.3882,-6.3866,-6.3866,-6.3924,-6.3837,-6.3894,-6.382,-6.3871,-6.383,-6.3931,-6.394,-6.3925,-6.3913,-6.3932,-6.3934,-6.3946,-6.393,-6.3882,-6.388,-6.3878,-6.3877,0,-6.3924,-6.3877,-6.3981,-6.3958,-6.3955,-6.4035,-6.4016,-6.4074,-6.4044,-6.412,-6.4133,-6.4088,-6.4143,-6.4093,-6.4145,-6.4118,-6.4252,-6.4219,-6.4251,-6.4242,-6.4351,-6.4342,-6.4713,-6.4759,-6.4408,-6.4411,-6.4414,0,-6.4088,-6.416,-6.4147,-6.418,-6.4181,-6.4235,-6.4261,-6.4197,-6.4228,-6.424,-6.4296,-6.4344,-6.4378,-6.4472,-6.4444,-6.4485,-6.4451,-6.4579,-6.4456,-6.4475,-6.4453,-6.4449,-6.4457,-6.4603,-6.4607,-6.4611,-6.4614,0,-6.4384,-6.4359,-6.44,-6.4435,-6.4469,-6.4493,-6.451,-6.4542,-6.4476,-6.4516,-6.4571,-6.4599,-6.4653,-6.4703,-6.4735,-6.4731,-6.4663,-6.4653,-6.468,-6.47,-6.4715,-6.4709,-6.4319,-6.4644,-6.4641,-6.4639,-6.4637,-6.4636,-6.4607,-6.4668,-6.4668,-6.4718,-6.4724,-6.4743,-6.4797,-6.4775,-6.482,-6.4859,-6.4819,-6.4887,-6.4892,-6.4928,-6.4933,-6.4986,-6.4933,-6.4972,-6.4981,-6.4992,-6.5008,-6.4708,-6.4992,-6.4991,-6.499,-6.4989,-6.4989,0,-6.4899,-6.4895,-6.4941,-6.4969,-6.5009,-6.4942,-6.4958,-6.4996,-6.5057,-6.5067,-6.5103,-6.5169,-6.5217,-6.5194,-6.5237,-6.5284,-6.5254,-6.5297,-6.5292,-6.5293,-6.5053,-6.5026,-6.5321,-6.5321,-6.5321,-6.5321,-6.5321,-6.5321,-6.5055,-6.5155,-6.513,-6.5233,-6.5228,-6.5294,-6.531,-6.5328,-6.5335,-6.5412,-6.5452,-6.5437,-6.5435,-6.5477,-6.5519,-6.5511,-6.553,-6.5586,-6.5567,-6.5343,-6.531,-6.5279,-6.5252,-6.5591,-6.5591,-6.5802,-6.5804,-6.5806]},{"header":{"parameterUnit":"m.s-1","parameterCategory":1,"la1":30.2991,"la2":30.254,"lo1":-89.0895,"lo2":-89.0444,"dy":0.0017,"dx":0.0017,"nx":28,"ny":28,"refTime":"2025-09-01T21:00:00:Z","depth":0,"parameterNumber":3,"parameterNumberName":"V-component_of_WINDS"},"data":[0,0,0,0,0,0,0,0,0,0,0,0,0,0,0,0,0,0,0,0,0,0,0,0,0,0,0,0,0,0,0,0,0,0,0,0,0,0,0,0,0,0,0,0,0,0,0,0,0,0,0,0,0,0,0,0,0,0,1.1374,1.1373,0,1.134,1.134,1.1339,1.1378,1.138,1.1381,1.1383,1.1343,1.134,1.1338,0,0,0,0,0,0,0,0,0,0,0,0,0,1.1467,1.1465,1.1374,1.1373,1.1373,1.134,1.134,1.1339,1.1378,1.138,1.1382,1.1383,1.1344,1.1341,1.1338,0,0,0,0,0,0,0,0,0,0,0,0,0,1.1429,1.1464,1.1374,1.1388,1.1389,1.134,1.134,1.1339,1.1378,1.138,1.1382,1.1384,1.1345,1.1341,1.1337,1.127,0,0,1.1326,1.1325,0,0,0,0,0,0,0,0,1.1431,1.1426,1.1387,1.1387,1.1388,1.1366,1.1358,1.1316,1.1377,1.1382,1.1383,1.1385,1.1348,1.1344,1.1333,1.1269,1.1267,1.1326,1.1324,1.1322,1.1321,0,0,0,0,0,0,0,1.1434,1.1427,1.136,1.1386,1.1387,1.1395,1.1392,1.135,1.1353,1.1382,1.1385,1.138,1.1349,1.1337,1.1332,1.1266,1.1326,1.1323,1.132,1.1319,1.1145,1.1142,0,0,0,0,0,0,1.1435,1.1429,1.1361,1.1359,1.1416,1.1392,1.1389,1.1371,1.1354,1.1353,1.1378,1.1382,1.1342,1.1337,1.1331,1.1251,1.1322,1.1319,1.1317,1.1147,1.1144,1.1141,0,0,0,0,0,0,1.1437,1.1429,1.1363,1.1395,1.1387,1.1388,1.1367,1.1369,1.1356,1.1351,1.1351,1.1365,1.1343,1.1336,1.1286,1.125,1.1317,1.1314,1.115,1.1146,1.1143,1.1089,0,0,0,0,0,0,1.144,1.1429,1.1405,1.1394,1.1385,1.1318,1.1365,1.1367,1.1351,1.1355,1.1339,1.1338,1.1344,1.1291,1.1282,1.1246,1.1311,1.1153,1.1148,1.1144,1.1094,1.1084,1.1076,0,0,0,0,0,1.1443,1.139,1.1403,1.1395,1.1355,1.1316,1.1311,1.1321,1.1348,1.1322,1.1319,1.1339,1.1256,1.1285,1.1276,1.1238,1.1155,1.1149,1.1144,1.1098,1.1086,1.1076,0,0,0,0,0,0,1.1394,1.1389,1.1403,1.1346,1.1332,1.1323,1.1291,1.1308,1.1284,1.1289,1.1301,1.1297,1.1243,1.1236,1.1269,1.1172,1.121,1.1202,1.1178,1.1167,1.1158,1.1159,1.1308,0,0,0,0,0,1.1377,1.1348,1.1344,1.1294,1.1286,1.129,1.1274,1.1283,1.1268,1.1261,1.1254,1.1237,1.1207,1.1187,1.1159,1.1095,1.1091,1.1064,1.1055,1.1048,1.104,1.1004,1.0991,1.1123,1.1123,1.1123,0,0,1.134,1.1334,1.1314,1.1284,1.1274,1.1242,1.1284,1.1249,1.1224,1.1255,1.1206,1.1201,1.1183,1.1125,1.1099,1.1117,1.1003,1.1041,1.1035,1.1031,1.0997,1.0984,1.0973,1.112,1.112,1.1121,0,0,1.1257,1.125,1.1207,1.1197,1.1182,1.1185,1.1175,1.1164,1.1162,1.1115,1.1137,1.1108,1.1057,1.1043,1.1029,1.0942,1.0959,1.0933,1.0883,1.0848,1.0838,1.0829,1.0796,1.0784,1.0926,1.0926,1.0926,0,1.1213,1.1167,1.1182,1.1145,1.113,1.116,1.1115,1.1104,1.108,1.1068,1.109,1.1027,1.1016,1.0955,1.0934,1.0922,1.0909,1.0933,1.0839,1.0829,1.0821,1.079,1.0777,1.0922,1.0923,1.0923,1.0923,0,1.1112,1.108,1.1047,1.1025,1.1007,1.0966,1.0974,1.0954,1.0965,1.0966,1.0916,1.0906,1.0876,1.0863,1.0873,1.0802,1.0814,1.0837,1.0874,1.0805,1.0775,1.0764,1.0918,1.0919,1.092,1.0921,0,0,1.0994,1.0983,1.097,1.0961,1.0947,1.0922,1.0883,1.0856,1.0837,1.082,1.0786,1.0743,1.0765,1.0749,1.0758,1.0727,1.0657,1.0754,1.0754,1.0734,1.0577,1.0557,1.0543,1.067,1.0668,1.0666,1.0578,0,1.0909,1.0842,1.0856,1.0789,1.0759,1.0787,1.0753,1.074,1.074,1.0713,1.0712,1.0681,1.0713,1.0704,1.0675,1.0672,1.0625,1.0679,1.0635,1.0634,1.0636,1.0528,1.0508,1.0425,1.0566,1.0565,1.0563,0,1.08,1.0781,1.0712,1.0704,1.0692,1.066,1.0637,1.0612,1.0598,1.06,1.0583,1.0598,1.0557,1.0598,1.0541,1.0577,1.0561,1.0557,1.0554,1.0547,1.0592,1.0517,1.0399,1.0385,1.0546,1.0547,1.0548,0,1.0718,1.0676,1.0629,1.062,1.0609,1.0587,1.0581,1.057,1.0553,1.0532,1.0521,1.0495,1.048,1.0459,1.0466,1.0496,1.0407,1.0449,1.0405,1.0405,1.0383,1.0383,1.0257,1.0377,1.0377,1.0377,1.0377,0,1.062,1.0576,1.0592,1.0562,1.0514,1.053,1.0481,1.0478,1.0468,1.0438,1.0461,1.0432,1.0445,1.0416,1.0421,1.0372,1.0366,1.0365,1.0366,1.0361,1.0361,1.0348,1.0353,1.0374,1.0375,1.0375,1.0376,0,1.0519,1.0528,1.0478,1.0474,1.0472,1.0436,1.0431,1.0403,1.0406,1.0367,1.0359,1.0362,1.033,1.0336,1.03,1.0303,1.0241,1.0251,1.0246,1.0247,1.0203,1.0206,1.0062,1.0043,1.0177,1.0176,1.0175,0,1.0454,1.0422,1.0414,1.0396,1.039,1.0361,1.0344,1.0359,1.034,1.0323,1.0296,1.0266,1.0243,1.0189,1.0187,1.0159,1.0167,1.0119,1.0163,1.0158,1.0163,1.0164,1.016,1.0109,1.0107,1.0106,1.0105,0,1.0338,1.0345,1.0321,1.0298,1.0279,1.0261,1.0246,1.023,1.0243,1.0221,1.0189,1.0171,1.0135,1.0104,1.0078,1.0071,1.0089,1.0092,1.008,1.0073,1.007,1.0069,1.0219,1.0094,1.0095,1.0096,1.0097,1.0097,1.0252,1.0224,1.0214,1.0187,1.0177,1.0163,1.0136,1.0137,1.0111,1.0084,1.0094,1.0057,1.0044,1.0012,1.0002,0.9972,0.9989,0.9973,0.9968,0.9963,0.9956,1.0078,0.9967,0.9968,0.9968,0.9968,0.9968,0,1.0135,1.0131,1.0106,1.0084,1.0062,1.0085,1.007,1.0049,1.0017,1.0004,0.9981,0.9944,0.9914,0.9911,0.9883,0.986,0.9867,0.9852,0.9852,0.9849,0.9943,0.9955,0.9846,0.9846,0.9846,0.9846,0.9846,0.9846,1.0071,1.0025,1.003,0.9979,0.9975,0.994,0.9929,0.9915,0.9905,0.9863,0.9839,0.9838,0.9829,0.9801,0.9774,0.9774,0.9761,0.9742,0.9744,0.9831,0.9843,0.9855,0.9866,0.9739,0.9739,0.9653,0.9652,0.9651]}]]